START_TIME,STEP,MOV.,P1,t_acc.,E44,t_acc.,A3,t_acc.,P10,t_acc.
1979-07-30 09:00:22.280 ,0,0,0.,1.2,88.,1.2,0.,1.2,0.,1.2
1979-07-30 09:00:23.480 ,0,0,0.,1.2,98.,1.2,0.,1.2,0.,1.2
1979-07-30 09:00:24.680 ,0,0,2.,1.2,84.,1.2,0.,1.2,0.,1.2
1979-07-30 09:00:25.880 ,0,0,0.,1.2,102.,1.2,0.,1.2,0.,1.2
1979-07-30 09:00:27.080 ,0,0,1.,1.2,80.,1.2,0.,1.2,0.,1.2
1979-07-30 09:00:28.280 ,0,0,0.,1.2,98.,1.2,0.,1.2,0.,1.2
1979-07-30 09:00:29.480 ,0,0,0.,1.2,92.,1.2,0.,1.2,0.,1.2
1979-07-30 09:00:30.680 ,0,0,0.,1.2,80.,1.2,0.,1.2,0.,1.2
1979-07-30 09:00:31.880 ,0,0,2.,1.2,68.,1.2,0.,1.2,0.,1.2
1979-07-30 09:00:33.080 ,0,0,0.,1.2,96.,1.2,0.,1.2,0.,1.2
1979-07-30 09:00:34.280 ,0,0,1.,1.2,90.,1.2,0.,1.2,0.,1.2
1979-07-30 09:00:35.480 ,0,0,0.,1.2,80.,1.2,0.,1.2,0.,1.2
1979-07-30 09:00:36.680 ,0,0,1.,1.2,108.,1.2,0.,1.2,0.,1.2
1979-07-30 09:00:37.880 ,0,0,2.,1.2,94.,1.2,0.,1.2,0.,1.2
1979-07-30 09:00:39.080 ,0,0,0.,1.2,94.,1.2,0.,1.2,0.,1.2
1979-07-30 09:00:40.280 ,0,0,1.,1.2,92.,1.2,0.,1.2,0.,1.2
1979-07-30 09:00:41.480 ,0,0,1.,1.2,80.,1.2,0.,1.2,0.,1.2
1979-07-30 09:00:42.680 ,0,0,2.,1.2,92.,1.2,0.,1.2,0.,1.2
1979-07-30 09:00:43.880 ,0,0,0.,1.2,88.,1.2,0.,1.2,0.,1.2
1979-07-30 09:00:45.080 ,0,0,0.,1.2,98.,1.2,0.,1.2,0.,1.2
1979-07-30 09:00:46.280 ,0,0,1.,1.2,68.,1.2,0.,1.2,0.,1.2
1979-07-30 09:00:47.480 ,0,0,0.,1.2,98.,1.2,0.,1.2,0.,1.2
1979-07-30 09:00:48.680 ,0,0,0.,1.2,96.,1.2,0.,1.2,0.,1.2
1979-07-30 09:00:49.880 ,0,0,0.,1.2,82.,1.2,0.,1.2,0.,1.2
1979-07-30 09:00:51.080 ,0,0,0.,1.2,78.,1.2,0.,1.2,0.,1.2
1979-07-30 09:00:52.280 ,0,0,0.,1.2,106.,1.2,0.,1.2,0.,1.2
1979-07-30 09:00:53.480 ,0,0,1.,1.2,100.,1.2,0.,1.2,0.,1.2
1979-07-30 09:00:54.680 ,0,0,1.,1.2,92.,1.2,0.,1.2,0.,1.2
1979-07-30 09:00:55.880 ,0,0,0.,1.2,80.,1.2,0.,1.2,0.,1.2
1979-07-30 09:00:57.080 ,0,0,2.,1.2,80.,1.2,0.,1.2,0.,1.2
1979-07-30 09:00:58.280 ,0,0,0.,1.2,88.,1.2,0.,1.2,0.,1.2
1979-07-30 09:00:59.480 ,0,0,1.,1.2,106.,1.2,0.,1.2,0.,1.2
1979-07-30 09:01:00.680 ,0,0,1.,1.2,66.,1.2,0.,1.2,0.,1.2
1979-07-30 09:01:01.880 ,0,0,0.,1.2,90.,1.2,0.,1.2,0.,1.2
1979-07-30 09:01:03.080 ,0,0,0.,1.2,84.,1.2,0.,1.2,0.,1.2
1979-07-30 09:01:04.280 ,0,0,0.,1.2,90.,1.2,0.,1.2,0.,1.2
1979-07-30 09:01:05.480 ,0,0,2.,1.2,96.,1.2,0.,1.2,0.,1.2
1979-07-30 09:01:06.680 ,0,0,0.,1.2,92.,1.2,0.,1.2,0.,1.2
1979-07-30 09:01:07.880 ,0,0,1.,1.2,92.,1.2,0.,1.2,0.,1.2
1979-07-30 09:01:09.080 ,0,0,0.,1.2,92.,1.2,0.,1.2,0.,1.2
1979-07-30 09:01:10.280 ,0,0,0.,1.2,94.,1.2,0.,1.2,0.,1.2
1979-07-30 09:01:11.480 ,0,0,0.,1.2,100.,1.2,0.,1.2,0.,1.2
1979-07-30 09:01:12.680 ,0,0,1.,1.2,96.,1.2,0.,1.2,0.,1.2
1979-07-30 09:01:13.880 ,0,0,0.,1.2,74.,1.2,0.,1.2,0.,1.2
1979-07-30 09:01:15.080 ,0,0,1.,1.2,110.,1.2,0.,1.2,0.,1.2
1979-07-30 09:01:16.280 ,0,0,2.,1.2,82.,1.2,0.,1.2,0.,1.2
1979-07-30 09:01:17.480 ,0,0,0.,1.2,102.,1.2,0.,1.2,0.,1.2
1979-07-30 09:01:18.680 ,0,0,0.,1.2,92.,1.2,0.,1.2,0.,1.2
1979-07-30 09:01:19.880 ,0,0,0.,1.2,76.,1.2,0.,1.2,0.,1.2
1979-07-30 09:01:21.080 ,0,0,0.,1.2,92.,1.2,0.,1.2,0.,1.2
1979-07-30 09:01:22.280 ,0,0,0.,1.2,86.,1.2,0.,1.2,0.,1.2
1979-07-30 09:01:23.480 ,0,0,0.,1.2,86.,1.2,0.,1.2,0.,1.2
1979-07-30 09:01:24.680 ,0,0,0.,1.2,92.,1.2,0.,1.2,0.,1.2
1979-07-30 09:01:25.880 ,0,0,0.,1.2,100.,1.2,0.,1.2,0.,1.2
1979-07-30 09:01:27.080 ,0,0,0.,1.2,76.,1.2,0.,1.2,0.,1.2
1979-07-30 09:01:28.280 ,0,0,1.,1.2,90.,1.2,0.,1.2,0.,1.2
1979-07-30 09:01:29.480 ,0,0,1.,1.2,94.,1.2,0.,1.2,0.,1.2
1979-07-30 09:01:30.680 ,0,0,0.,1.2,80.,1.2,0.,1.2,0.,1.2
1979-07-30 09:01:31.880 ,0,0,0.,1.2,94.,1.2,0.,1.2,0.,1.2
1979-07-30 09:01:33.080 ,0,0,0.,1.2,90.,1.2,0.,1.2,0.,1.2
1979-07-30 09:01:34.280 ,1,0,2.,1.2,76.,1.2,0.,1.2,0.,1.2
1979-07-30 09:01:35.480 ,1,0,0.,1.2,78.,1.2,0.,1.2,0.,1.2
1979-07-30 09:01:36.680 ,1,0,0.,1.2,96.,1.2,0.,1.2,0.,1.2
1979-07-30 09:01:37.880 ,1,0,0.,1.2,84.,1.2,0.,1.2,0.,1.2
1979-07-30 09:01:39.080 ,1,0,0.,1.2,82.,1.2,0.,1.2,0.,1.2
1979-07-30 09:01:40.280 ,1,0,1.,1.2,264.,1.2,0.,1.2,0.,1.2
1979-07-30 09:01:41.480 ,1,0,0.,1.2,90.,1.2,0.,1.2,0.,1.2
1979-07-30 09:01:42.680 ,1,0,1.,1.2,92.,1.2,0.,1.2,0.,1.2
1979-07-30 09:01:43.880 ,1,0,1.,1.2,82.,1.2,0.,1.2,0.,1.2
1979-07-30 09:01:45.080 ,1,0,0.,1.2,86.,1.2,0.,1.2,0.,1.2
1979-07-30 09:01:46.280 ,1,0,0.,1.2,94.,1.2,0.,1.2,0.,1.2
1979-07-30 09:01:47.480 ,1,0,0.,1.2,92.,1.2,0.,1.2,0.,1.2
1979-07-30 09:01:48.680 ,1,0,1.,1.2,82.,1.2,0.,1.2,0.,1.2
1979-07-30 09:01:49.880 ,1,0,1.,1.2,86.,1.2,0.,1.2,0.,1.2
1979-07-30 09:01:51.080 ,1,0,0.,1.2,76.,1.2,0.,1.2,0.,1.2
1979-07-30 09:01:52.280 ,1,0,0.,1.2,68.,1.2,0.,1.2,0.,1.2
1979-07-30 09:01:53.480 ,1,0,0.,1.2,76.,1.2,0.,1.2,0.,1.2
1979-07-30 09:01:54.680 ,1,0,0.,1.2,88.,1.2,0.,1.2,0.,1.2
1979-07-30 09:01:55.880 ,1,0,0.,1.2,78.,1.2,0.,1.2,0.,1.2
1979-07-30 09:01:57.080 ,1,0,0.,1.2,82.,1.2,0.,1.2,0.,1.2
1979-07-30 09:01:58.280 ,1,0,1.,1.2,94.,1.2,0.,1.2,0.,1.2
1979-07-30 09:01:59.480 ,1,0,0.,1.2,80.,1.2,0.,1.2,0.,1.2
1979-07-30 09:02:00.680 ,1,0,0.,1.2,86.,1.2,0.,1.2,0.,1.2
1979-07-30 09:02:01.880 ,1,0,0.,1.2,86.,1.2,0.,1.2,0.,1.2
1979-07-30 09:02:03.080 ,1,0,0.,1.2,88.,1.2,0.,1.2,0.,1.2
1979-07-30 09:02:04.280 ,1,0,0.,1.2,82.,1.2,0.,1.2,0.,1.2
1979-07-30 09:02:05.480 ,1,0,1.,1.2,84.,1.2,0.,1.2,0.,1.2
1979-07-30 09:02:06.680 ,1,0,0.,1.2,80.,1.2,0.,1.2,0.,1.2
1979-07-30 09:02:07.880 ,1,0,0.,1.2,84.,1.2,0.,1.2,0.,1.2
1979-07-30 09:02:09.080 ,1,0,0.,1.2,76.,1.2,0.,1.2,0.,1.2
1979-07-30 09:02:10.280 ,1,0,1.,1.2,78.,1.2,0.,1.2,0.,1.2
1979-07-30 09:02:11.480 ,1,0,2.,1.2,84.,1.2,0.,1.2,0.,1.2
1979-07-30 09:02:12.680 ,1,0,0.,1.2,86.,1.2,0.,1.2,0.,1.2
1979-07-30 09:02:13.880 ,1,0,2.,1.2,80.,1.2,0.,1.2,0.,1.2
1979-07-30 09:02:15.080 ,1,0,0.,1.2,88.,1.2,0.,1.2,0.,1.2
1979-07-30 09:02:16.280 ,1,0,1.,1.2,80.,1.2,0.,1.2,0.,1.2
1979-07-30 09:02:17.480 ,1,0,1.,1.2,68.,1.2,0.,1.2,0.,1.2
1979-07-30 09:02:18.680 ,1,0,0.,1.2,80.,1.2,0.,1.2,0.,1.2
1979-07-30 09:02:19.880 ,1,0,1.,1.2,66.,1.2,0.,1.2,0.,1.2
1979-07-30 09:02:21.080 ,1,0,0.,1.2,90.,1.2,0.,1.2,0.,1.2
1979-07-30 09:02:22.280 ,2,0,0.,1.2,94.,1.2,0.,1.2,0.,1.2
1979-07-30 09:02:23.480 ,2,0,0.,1.2,92.,1.2,0.,1.2,0.,1.2
1979-07-30 09:02:24.680 ,2,0,0.,1.2,98.,1.2,0.,1.2,0.,1.2
1979-07-30 09:02:25.880 ,2,0,0.,1.2,80.,1.2,0.,1.2,0.,1.2
1979-07-30 09:02:27.080 ,2,0,0.,1.2,88.,1.2,0.,1.2,0.,1.2
1979-07-30 09:02:28.280 ,2,0,1.,1.2,280.,1.2,0.,1.2,0.,1.2
1979-07-30 09:02:29.480 ,2,0,1.,1.2,74.,1.2,0.,1.2,0.,1.2
1979-07-30 09:02:30.680 ,2,0,0.,1.2,49.,1.2,0.,1.2,0.,1.2
1979-07-30 09:02:31.880 ,2,0,0.,1.2,88.,1.2,0.,1.2,0.,1.2
1979-07-30 09:02:33.080 ,2,0,0.,1.2,62.,1.2,0.,1.2,0.,1.2
1979-07-30 09:02:34.280 ,2,0,0.,1.2,60.,1.2,0.,1.2,0.,1.2
1979-07-30 09:02:35.480 ,2,0,0.,1.2,84.,1.2,0.,1.2,0.,1.2
1979-07-30 09:02:36.680 ,2,0,0.,1.2,78.,1.2,0.,1.2,0.,1.2
1979-07-30 09:02:37.880 ,2,0,0.,1.2,68.,1.2,0.,1.2,0.,1.2
1979-07-30 09:02:39.080 ,2,0,0.,1.2,64.,1.2,0.,1.2,0.,1.2
1979-07-30 09:02:40.280 ,2,0,0.,1.2,70.,1.2,0.,1.2,0.,1.2
1979-07-30 09:02:41.480 ,2,0,0.,1.2,66.,1.2,0.,1.2,0.,1.2
1979-07-30 09:02:42.680 ,2,0,0.,1.2,88.,1.2,0.,1.2,0.,1.2
1979-07-30 09:02:43.880 ,2,0,0.,1.2,78.,1.2,0.,1.2,0.,1.2
1979-07-30 09:02:45.080 ,2,0,0.,1.2,80.,1.2,0.,1.2,0.,1.2
1979-07-30 09:02:46.280 ,2,0,1.,1.2,66.,1.2,0.,1.2,0.,1.2
1979-07-30 09:02:47.480 ,2,0,0.,1.2,66.,1.2,0.,1.2,0.,1.2
1979-07-30 09:02:48.680 ,2,0,0.,1.2,76.,1.2,0.,1.2,0.,1.2
1979-07-30 09:02:49.880 ,2,0,0.,1.2,74.,1.2,0.,1.2,0.,1.2
1979-07-30 09:02:51.080 ,2,0,0.,1.2,80.,1.2,0.,1.2,0.,1.2
1979-07-30 09:02:52.280 ,2,0,1.,1.2,64.,1.2,0.,1.2,0.,1.2
1979-07-30 09:02:53.480 ,2,0,0.,1.2,72.,1.2,0.,1.2,0.,1.2
1979-07-30 09:02:54.680 ,2,0,1.,1.2,80.,1.2,0.,1.2,0.,1.2
1979-07-30 09:02:55.880 ,2,0,0.,1.2,82.,1.2,0.,1.2,0.,1.2
1979-07-30 09:02:57.080 ,2,0,1.,1.2,76.,1.2,0.,1.2,0.,1.2
1979-07-30 09:02:58.280 ,2,0,0.,1.2,72.,1.2,0.,1.2,0.,1.2
1979-07-30 09:02:59.480 ,2,0,0.,1.2,74.,1.2,0.,1.2,0.,1.2
1979-07-30 09:03:00.680 ,2,0,0.,1.2,80.,1.2,0.,1.2,0.,1.2
1979-07-30 09:03:01.880 ,2,0,0.,1.2,86.,1.2,0.,1.2,0.,1.2
1979-07-30 09:03:03.080 ,2,0,1.,1.2,60.,1.2,0.,1.2,0.,1.2
1979-07-30 09:03:04.280 ,2,0,0.,1.2,68.,1.2,0.,1.2,0.,1.2
1979-07-30 09:03:05.480 ,2,0,0.,1.2,72.,1.2,0.,1.2,0.,1.2
1979-07-30 09:03:06.680 ,2,0,0.,1.2,76.,1.2,0.,1.2,0.,1.2
1979-07-30 09:03:07.880 ,2,0,0.,1.2,78.,1.2,0.,1.2,0.,1.2
1979-07-30 09:03:09.080 ,2,0,1.,1.2,74.,1.2,0.,1.2,0.,1.2
1979-07-30 09:03:10.280 ,3,0,0.,1.2,76.,1.2,0.,1.2,0.,1.2
1979-07-30 09:03:11.480 ,3,0,1.,1.2,70.,1.2,0.,1.2,0.,1.2
1979-07-30 09:03:12.680 ,3,0,0.,1.2,74.,1.2,0.,1.2,0.,1.2
1979-07-30 09:03:13.880 ,3,0,0.,1.2,80.,1.2,0.,1.2,0.,1.2
1979-07-30 09:03:15.080 ,3,0,0.,1.2,70.,1.2,0.,1.2,0.,1.2
1979-07-30 09:03:16.280 ,3,0,1.,1.2,264.,1.2,0.,1.2,0.,1.2
1979-07-30 09:03:17.480 ,3,0,2.,1.2,48.,1.2,0.,1.2,0.,1.2
1979-07-30 09:03:18.680 ,3,0,0.,1.2,34.,1.2,0.,1.2,0.,1.2
1979-07-30 09:03:19.880 ,3,0,0.,1.2,31.,1.2,0.,1.2,0.,1.2
1979-07-30 09:03:21.080 ,3,0,0.,1.2,32.,1.2,0.,1.2,0.,1.2
1979-07-30 09:03:22.280 ,3,0,0.,1.2,34.,1.2,0.,1.2,0.,1.2
1979-07-30 09:03:23.480 ,3,0,0.,1.2,33.,1.2,0.,1.2,0.,1.2
1979-07-30 09:03:24.680 ,3,0,0.,1.2,28.,1.2,0.,1.2,0.,1.2
1979-07-30 09:03:25.880 ,3,0,1.,1.2,36.,1.2,0.,1.2,0.,1.2
1979-07-30 09:03:27.080 ,3,0,0.,1.2,40.,1.2,0.,1.2,0.,1.2
1979-07-30 09:03:28.280 ,3,0,1.,1.2,34.,1.2,0.,1.2,0.,1.2
1979-07-30 09:03:29.480 ,3,0,0.,1.2,31.,1.2,0.,1.2,0.,1.2
1979-07-30 09:03:30.680 ,3,0,1.,1.2,31.,1.2,0.,1.2,0.,1.2
1979-07-30 09:03:31.880 ,3,0,1.,1.2,51.,1.2,0.,1.2,0.,1.2
1979-07-30 09:03:33.080 ,3,0,0.,1.2,40.,1.2,0.,1.2,0.,1.2
1979-07-30 09:03:34.280 ,3,0,0.,1.2,30.,1.2,0.,1.2,0.,1.2
1979-07-30 09:03:35.480 ,3,0,0.,1.2,43.,1.2,0.,1.2,0.,1.2
1979-07-30 09:03:36.680 ,3,0,0.,1.2,30.,1.2,0.,1.2,0.,1.2
1979-07-30 09:03:37.880 ,3,0,1.,1.2,37.,1.2,0.,1.2,0.,1.2
1979-07-30 09:03:39.080 ,3,0,0.,1.2,32.,1.2,0.,1.2,0.,1.2
1979-07-30 09:03:40.280 ,3,0,1.,1.2,32.,1.2,0.,1.2,0.,1.2
1979-07-30 09:03:41.480 ,3,0,0.,1.2,26.,1.2,0.,1.2,0.,1.2
1979-07-30 09:03:42.680 ,3,0,0.,1.2,34.,1.2,0.,1.2,0.,1.2
1979-07-30 09:03:43.880 ,3,0,0.,1.2,36.,1.2,0.,1.2,0.,1.2
1979-07-30 09:03:45.080 ,3,0,1.,1.2,30.,1.2,0.,1.2,0.,1.2
1979-07-30 09:03:46.280 ,3,0,0.,1.2,27.,1.2,0.,1.2,0.,1.2
1979-07-30 09:03:47.480 ,3,0,0.,1.2,24.,1.2,0.,1.2,0.,1.2
1979-07-30 09:03:48.680 ,3,0,0.,1.2,30.,1.2,0.,1.2,0.,1.2
1979-07-30 09:03:49.880 ,3,0,1.,1.2,32.,1.2,0.,1.2,0.,1.2
1979-07-30 09:03:51.080 ,3,0,0.,1.2,47.,1.2,0.,1.2,0.,1.2
1979-07-30 09:03:52.280 ,3,0,0.,1.2,31.,1.2,0.,1.2,0.,1.2
1979-07-30 09:03:53.480 ,3,0,1.,1.2,26.,1.2,0.,1.2,0.,1.2
1979-07-30 09:03:54.680 ,3,0,0.,1.2,33.,1.2,0.,1.2,0.,1.2
1979-07-30 09:03:55.880 ,3,0,0.,1.2,40.,1.2,0.,1.2,0.,1.2
1979-07-30 09:03:57.080 ,3,0,1.,1.2,37.,1.2,0.,1.2,0.,1.2
1979-07-30 09:03:58.280 ,4,0,0.,1.2,23.,1.2,0.,1.2,0.,1.2
1979-07-30 09:03:59.480 ,4,0,0.,1.2,36.,1.2,0.,1.2,0.,1.2
1979-07-30 09:04:00.680 ,4,0,0.,1.2,31.,1.2,0.,1.2,0.,1.2
1979-07-30 09:04:01.880 ,4,0,0.,1.2,34.,1.2,0.,1.2,0.,1.2
1979-07-30 09:04:03.080 ,4,0,0.,1.2,43.,1.2,0.,1.2,0.,1.2
1979-07-30 09:04:04.280 ,4,0,0.,1.2,184.,1.2,0.,1.2,0.,1.2
1979-07-30 09:04:05.480 ,4,0,1.,1.2,94.,1.2,0.,1.2,0.,1.2
1979-07-30 09:04:06.680 ,4,0,0.,1.2,78.,1.2,0.,1.2,0.,1.2
1979-07-30 09:04:07.880 ,4,0,0.,1.2,68.,1.2,0.,1.2,0.,1.2
1979-07-30 09:04:09.080 ,4,0,0.,1.2,90.,1.2,0.,1.2,0.,1.2
1979-07-30 09:04:10.280 ,4,0,1.,1.2,94.,1.2,0.,1.2,0.,1.2
1979-07-30 09:04:11.480 ,4,0,0.,1.2,90.,1.2,0.,1.2,0.,1.2
1979-07-30 09:04:12.680 ,4,0,0.,1.2,86.,1.2,0.,1.2,0.,1.2
1979-07-30 09:04:13.880 ,4,0,3.,1.2,86.,1.2,0.,1.2,0.,1.2
1979-07-30 09:04:15.080 ,4,0,0.,1.2,84.,1.2,0.,1.2,0.,1.2
1979-07-30 09:04:16.280 ,4,0,0.,1.2,84.,1.2,0.,1.2,0.,1.2
1979-07-30 09:04:17.480 ,4,0,0.,1.2,82.,1.2,0.,1.2,0.,1.2
1979-07-30 09:04:18.680 ,4,0,0.,1.2,70.,1.2,0.,1.2,0.,1.2
1979-07-30 09:04:19.880 ,4,0,0.,1.2,104.,1.2,0.,1.2,0.,1.2
1979-07-30 09:04:21.080 ,4,0,0.,1.2,114.,1.2,0.,1.2,0.,1.2
1979-07-30 09:04:22.280 ,4,0,0.,1.2,112.,1.2,0.,1.2,0.,1.2
1979-07-30 09:04:23.480 ,4,0,1.,1.2,82.,1.2,0.,1.2,0.,1.2
1979-07-30 09:04:24.680 ,4,0,0.,1.2,98.,1.2,0.,1.2,0.,1.2
1979-07-30 09:04:25.880 ,4,0,1.,1.2,56.,1.2,0.,1.2,0.,1.2
1979-07-30 09:04:27.080 ,4,0,1.,1.2,98.,1.2,0.,1.2,0.,1.2
1979-07-30 09:04:28.280 ,4,0,0.,1.2,86.,1.2,0.,1.2,0.,1.2
1979-07-30 09:04:29.480 ,4,0,0.,1.2,96.,1.2,0.,1.2,0.,1.2
1979-07-30 09:04:30.680 ,4,0,0.,1.2,94.,1.2,0.,1.2,0.,1.2
1979-07-30 09:04:31.880 ,4,0,0.,1.2,100.,1.2,0.,1.2,0.,1.2
1979-07-30 09:04:33.080 ,4,0,1.,1.2,80.,1.2,0.,1.2,0.,1.2
1979-07-30 09:04:34.280 ,4,0,1.,1.2,78.,1.2,0.,1.2,0.,1.2
1979-07-30 09:04:35.480 ,4,0,0.,1.2,100.,1.2,0.,1.2,0.,1.2
1979-07-30 09:04:36.680 ,4,0,1.,1.2,102.,1.2,0.,1.2,0.,1.2
1979-07-30 09:04:37.880 ,4,0,0.,1.2,90.,1.2,0.,1.2,0.,1.2
1979-07-30 09:04:39.080 ,4,0,0.,1.2,90.,1.2,0.,1.2,0.,1.2
1979-07-30 09:04:40.280 ,4,0,1.,1.2,88.,1.2,0.,1.2,0.,1.2
1979-07-30 09:04:41.480 ,4,0,0.,1.2,74.,1.2,0.,1.2,0.,1.2
1979-07-30 09:04:42.680 ,4,0,0.,1.2,98.,1.2,0.,1.2,0.,1.2
1979-07-30 09:04:43.880 ,4,0,0.,1.2,86.,1.2,0.,1.2,0.,1.2
1979-07-30 09:04:45.080 ,4,0,0.,1.2,108.,1.2,0.,1.2,0.,1.2
1979-07-30 09:04:46.280 ,5,0,0.,1.2,88.,1.2,0.,1.2,0.,1.2
1979-07-30 09:04:47.480 ,5,0,1.,1.2,70.,1.2,0.,1.2,0.,1.2
1979-07-30 09:04:48.680 ,5,0,0.,1.2,68.,1.2,0.,1.2,0.,1.2
1979-07-30 09:04:49.880 ,5,0,1.,1.2,80.,1.2,0.,1.2,0.,1.2
1979-07-30 09:04:51.080 ,5,0,2.,1.2,90.,1.2,0.,1.2,0.,1.2
1979-07-30 09:04:52.280 ,5,0,0.,1.2,228.,1.2,0.,1.2,0.,1.2
1979-07-30 09:04:53.480 ,5,0,0.,1.2,102.,1.2,0.,1.2,0.,1.2
1979-07-30 09:04:54.680 ,5,0,0.,1.2,90.,1.2,0.,1.2,0.,1.2
1979-07-30 09:04:55.880 ,5,0,1.,1.2,96.,1.2,0.,1.2,1.,1.2
1979-07-30 09:04:57.080 ,5,0,0.,1.2,86.,1.2,0.,1.2,0.,1.2
1979-07-30 09:04:58.280 ,5,0,0.,1.2,100.,1.2,0.,1.2,0.,1.2
1979-07-30 09:04:59.480 ,5,0,0.,1.2,86.,1.2,0.,1.2,0.,1.2
1979-07-30 09:05:00.680 ,5,0,1.,1.2,92.,1.2,0.,1.2,0.,1.2
1979-07-30 09:05:01.880 ,5,0,0.,1.2,92.,1.2,0.,1.2,0.,1.2
1979-07-30 09:05:03.080 ,5,0,0.,1.2,106.,1.2,0.,1.2,0.,1.2
1979-07-30 09:05:04.280 ,5,0,0.,1.2,92.,1.2,0.,1.2,0.,1.2
1979-07-30 09:05:05.480 ,5,0,0.,1.2,110.,1.2,0.,1.2,0.,1.2
1979-07-30 09:05:06.680 ,5,0,0.,1.2,98.,1.2,0.,1.2,0.,1.2
1979-07-30 09:05:07.880 ,5,0,1.,1.2,94.,1.2,0.,1.2,0.,1.2
1979-07-30 09:05:09.080 ,5,0,0.,1.2,96.,1.2,0.,1.2,0.,1.2
1979-07-30 09:05:10.280 ,5,0,0.,1.2,78.,1.2,0.,1.2,0.,1.2
1979-07-30 09:05:11.480 ,5,0,0.,1.2,100.,1.2,0.,1.2,0.,1.2
1979-07-30 09:05:12.680 ,5,0,0.,1.2,84.,1.2,0.,1.2,0.,1.2
1979-07-30 09:05:13.880 ,5,0,0.,1.2,96.,1.2,0.,1.2,0.,1.2
1979-07-30 09:05:15.080 ,5,0,0.,1.2,86.,1.2,0.,1.2,0.,1.2
1979-07-30 09:05:16.280 ,5,0,0.,1.2,88.,1.2,0.,1.2,0.,1.2
1979-07-30 09:05:17.480 ,5,0,0.,1.2,84.,1.2,0.,1.2,0.,1.2
1979-07-30 09:05:18.680 ,5,0,0.,1.2,86.,1.2,0.,1.2,0.,1.2
1979-07-30 09:05:19.880 ,5,0,1.,1.2,90.,1.2,0.,1.2,0.,1.2
1979-07-30 09:05:21.080 ,5,0,0.,1.2,78.,1.2,0.,1.2,0.,1.2
1979-07-30 09:05:22.280 ,5,0,0.,1.2,90.,1.2,0.,1.2,0.,1.2
1979-07-30 09:05:23.480 ,5,0,1.,1.2,92.,1.2,0.,1.2,0.,1.2
1979-07-30 09:05:24.680 ,5,0,0.,1.2,80.,1.2,0.,1.2,0.,1.2
1979-07-30 09:05:25.880 ,5,0,0.,1.2,96.,1.2,0.,1.2,0.,1.2
1979-07-30 09:05:27.080 ,5,0,0.,1.2,102.,1.2,0.,1.2,0.,1.2
1979-07-30 09:05:28.280 ,5,0,0.,1.2,96.,1.2,0.,1.2,0.,1.2
1979-07-30 09:05:29.480 ,5,0,2.,1.2,98.,1.2,0.,1.2,0.,1.2
1979-07-30 09:05:30.680 ,5,0,0.,1.2,94.,1.2,0.,1.2,0.,1.2
1979-07-30 09:05:31.880 ,5,0,0.,1.2,74.,1.2,0.,1.2,0.,1.2
1979-07-30 09:05:33.080 ,5,0,0.,1.2,80.,1.2,0.,1.2,0.,1.2
1979-07-30 09:05:34.280 ,6,0,0.,1.2,82.,1.2,0.,1.2,0.,1.2
1979-07-30 09:05:35.480 ,6,0,0.,1.2,90.,1.2,0.,1.2,0.,1.2
1979-07-30 09:05:36.680 ,6,0,0.,1.2,68.,1.2,0.,1.2,0.,1.2
1979-07-30 09:05:37.880 ,6,0,1.,1.2,82.,1.2,0.,1.2,0.,1.2
1979-07-30 09:05:39.080 ,6,0,0.,1.2,74.,1.2,0.,1.2,0.,1.2
1979-07-30 09:05:40.280 ,6,0,0.,1.2,304.,1.2,0.,1.2,0.,1.2
1979-07-30 09:05:41.480 ,6,0,1.,1.2,74.,1.2,0.,1.2,0.,1.2
1979-07-30 09:05:42.680 ,6,0,4.,1.2,80.,1.2,0.,1.2,0.,1.2
1979-07-30 09:05:43.880 ,6,0,1.,1.2,74.,1.2,0.,1.2,0.,1.2
1979-07-30 09:05:45.080 ,6,0,0.,1.2,66.,1.2,0.,1.2,0.,1.2
1979-07-30 09:05:46.280 ,6,0,2.,1.2,78.,1.2,0.,1.2,0.,1.2
1979-07-30 09:05:47.480 ,6,0,2.,1.2,84.,1.2,0.,1.2,0.,1.2
1979-07-30 09:05:48.680 ,6,0,0.,1.2,72.,1.2,0.,1.2,0.,1.2
1979-07-30 09:05:49.880 ,6,0,0.,1.2,84.,1.2,0.,1.2,0.,1.2
1979-07-30 09:05:51.080 ,6,0,0.,1.2,72.,1.2,0.,1.2,0.,1.2
1979-07-30 09:05:52.280 ,6,0,0.,1.2,70.,1.2,0.,1.2,0.,1.2
1979-07-30 09:05:53.480 ,6,0,0.,1.2,72.,1.2,0.,1.2,0.,1.2
1979-07-30 09:05:54.680 ,6,0,1.,1.2,88.,1.2,0.,1.2,0.,1.2
1979-07-30 09:05:55.880 ,6,0,1.,1.2,76.,1.2,0.,1.2,0.,1.2
1979-07-30 09:05:57.080 ,6,0,0.,1.2,74.,1.2,0.,1.2,0.,1.2
1979-07-30 09:05:58.280 ,6,0,1.,1.2,84.,1.2,0.,1.2,0.,1.2
1979-07-30 09:05:59.480 ,6,0,0.,1.2,74.,1.2,0.,1.2,0.,1.2
1979-07-30 09:06:00.680 ,6,0,0.,1.2,78.,1.2,0.,1.2,0.,1.2
1979-07-30 09:06:01.880 ,6,0,0.,1.2,80.,1.2,0.,1.2,0.,1.2
1979-07-30 09:06:03.080 ,6,0,0.,1.2,78.,1.2,0.,1.2,0.,1.2
1979-07-30 09:06:04.280 ,6,0,1.,1.2,66.,1.2,0.,1.2,0.,1.2
1979-07-30 09:06:05.480 ,6,0,0.,1.2,72.,1.2,0.,1.2,0.,1.2
1979-07-30 09:06:06.680 ,6,0,0.,1.2,92.,1.2,0.,1.2,0.,1.2
1979-07-30 09:06:07.880 ,6,0,0.,1.2,96.,1.2,0.,1.2,0.,1.2
1979-07-30 09:06:09.080 ,6,0,0.,1.2,68.,1.2,0.,1.2,0.,1.2
1979-07-30 09:06:10.280 ,6,0,1.,1.2,66.,1.2,0.,1.2,0.,1.2
1979-07-30 09:06:11.480 ,6,0,0.,1.2,88.,1.2,0.,1.2,0.,1.2
1979-07-30 09:06:12.680 ,6,0,0.,1.2,86.,1.2,0.,1.2,0.,1.2
1979-07-30 09:06:13.880 ,6,0,0.,1.2,86.,1.2,0.,1.2,0.,1.2
1979-07-30 09:06:15.080 ,6,0,1.,1.2,82.,1.2,0.,1.2,0.,1.2
1979-07-30 09:06:16.280 ,6,0,1.,1.2,78.,1.2,0.,1.2,0.,1.2
1979-07-30 09:06:17.480 ,6,0,1.,1.2,80.,1.2,0.,1.2,0.,1.2
1979-07-30 09:06:18.680 ,6,0,1.,1.2,72.,1.2,0.,1.2,0.,1.2
1979-07-30 09:06:19.880 ,6,0,0.,1.2,98.,1.2,0.,1.2,0.,1.2
1979-07-30 09:06:21.080 ,6,0,0.,1.2,84.,1.2,0.,1.2,0.,1.2
1979-07-30 09:06:22.280 ,7,0,0.,1.2,74.,1.2,0.,1.2,0.,1.2
1979-07-30 09:06:23.480 ,7,0,1.,1.2,63.,1.2,0.,1.2,0.,1.2
1979-07-30 09:06:24.680 ,7,0,0.,1.2,84.,1.2,0.,1.2,0.,1.2
1979-07-30 09:06:25.880 ,7,0,0.,1.2,68.,1.2,0.,1.2,0.,1.2
1979-07-30 09:06:27.080 ,7,0,0.,1.2,80.,1.2,0.,1.2,0.,1.2
1979-07-30 09:06:28.280 ,7,0,0.,1.2,208.,1.2,1.,1.2,0.,1.2
1979-07-30 09:06:29.480 ,7,0,0.,1.2,90.,1.2,9.,1.2,0.,1.2
1979-07-30 09:06:30.680 ,7,0,0.,1.2,86.,1.2,10.,1.2,0.,1.2
1979-07-30 09:06:31.880 ,7,0,0.,1.2,80.,1.2,3.,1.2,0.,1.2
1979-07-30 09:06:33.080 ,7,0,0.,1.2,80.,1.2,11.,1.2,0.,1.2
1979-07-30 09:06:34.280 ,7,0,0.,1.2,70.,1.2,8.,1.2,0.,1.2
1979-07-30 09:06:35.480 ,7,0,0.,1.2,68.,1.2,6.,1.2,0.,1.2
1979-07-30 09:06:36.680 ,7,0,0.,1.2,86.,1.2,9.,1.2,0.,1.2
1979-07-30 09:06:37.880 ,7,0,0.,1.2,76.,1.2,7.,1.2,0.,1.2
1979-07-30 09:06:39.080 ,7,0,0.,1.2,66.,1.2,8.,1.2,0.,1.2
1979-07-30 09:06:40.280 ,7,0,0.,1.2,68.,1.2,4.,1.2,0.,1.2
1979-07-30 09:06:41.480 ,7,0,0.,1.2,76.,1.2,3.,1.2,0.,1.2
1979-07-30 09:06:42.680 ,7,0,0.,1.2,78.,1.2,7.,1.2,0.,1.2
1979-07-30 09:06:43.880 ,7,0,0.,1.2,74.,1.2,7.,1.2,0.,1.2
1979-07-30 09:06:45.080 ,7,0,0.,1.2,74.,1.2,8.,1.2,0.,1.2
1979-07-30 09:06:46.280 ,7,0,0.,1.2,70.,1.2,9.,1.2,0.,1.2
1979-07-30 09:06:47.480 ,7,0,0.,1.2,82.,1.2,9.,1.2,0.,1.2
1979-07-30 09:06:48.680 ,7,0,0.,1.2,70.,1.2,7.,1.2,0.,1.2
1979-07-30 09:06:49.880 ,7,0,0.,1.2,76.,1.2,4.,1.2,0.,1.2
1979-07-30 09:06:51.080 ,7,0,0.,1.2,80.,1.2,5.,1.2,0.,1.2
1979-07-30 09:06:52.280 ,7,0,0.,1.2,88.,1.2,8.,1.2,0.,1.2
1979-07-30 09:06:53.480 ,7,0,0.,1.2,84.,1.2,4.,1.2,0.,1.2
1979-07-30 09:06:54.680 ,7,0,0.,1.2,66.,1.2,3.,1.2,0.,1.2
1979-07-30 09:06:55.880 ,7,0,0.,1.2,72.,1.2,8.,1.2,0.,1.2
1979-07-30 09:06:57.080 ,7,0,0.,1.2,92.,1.2,8.,1.2,0.,1.2
1979-07-30 09:06:58.280 ,7,0,0.,1.2,82.,1.2,6.,1.2,0.,1.2
1979-07-30 09:06:59.480 ,7,0,0.,1.2,76.,1.2,4.,1.2,0.,1.2
1979-07-30 09:07:00.680 ,7,0,0.,1.2,70.,1.2,2.,1.2,0.,1.2
1979-07-30 09:07:01.880 ,7,0,0.,1.2,86.,1.2,2.,1.2,0.,1.2
1979-07-30 09:07:03.080 ,7,0,0.,1.2,70.,1.2,4.,1.2,0.,1.2
1979-07-30 09:07:04.280 ,7,0,0.,1.2,92.,1.2,2.,1.2,0.,1.2
1979-07-30 09:07:05.480 ,7,0,0.,1.2,66.,1.2,6.,1.2,0.,1.2
1979-07-30 09:07:06.680 ,7,0,0.,1.2,74.,1.2,3.,1.2,0.,1.2
1979-07-30 09:07:07.880 ,7,0,0.,1.2,66.,1.2,11.,1.2,0.,1.2
1979-07-30 09:07:09.080 ,7,0,0.,1.2,76.,1.2,3.,1.2,0.,1.2
1979-07-30 09:07:10.280 ,3,0,0.,1.2,228.,1.2,4.,1.2,0.,1.2
1979-07-30 09:07:11.480 ,3,0,1.,1.2,72.,1.2,0.,1.2,0.,1.2
1979-07-30 09:07:12.680 ,3,0,0.,1.2,98.,1.2,0.,1.2,0.,1.2
1979-07-30 09:07:13.880 ,3,0,0.,1.2,78.,1.2,0.,1.2,0.,1.2
1979-07-30 09:07:15.080 ,3,0,0.,1.2,78.,1.2,0.,1.2,0.,1.2
1979-07-30 09:07:16.280 ,3,0,1.,1.2,204.,1.2,0.,1.2,0.,1.2
1979-07-30 09:07:17.480 ,3,0,0.,1.2,70.,1.2,0.,1.2,0.,1.2
1979-07-30 09:07:18.680 ,3,0,0.,1.2,80.,1.2,0.,1.2,0.,1.2
1979-07-30 09:07:19.880 ,3,0,0.,1.2,80.,1.2,0.,1.2,0.,1.2
1979-07-30 09:07:21.080 ,3,0,0.,1.2,64.,1.2,0.,1.2,0.,1.2
1979-07-30 09:07:22.280 ,3,0,0.,1.2,204.,1.2,0.,1.2,0.,1.2
1979-07-30 09:07:23.480 ,3,0,0.,1.2,70.,1.2,0.,1.2,0.,1.2
1979-07-30 09:07:24.680 ,3,0,1.,1.2,64.,1.2,0.,1.2,0.,1.2
1979-07-30 09:07:25.880 ,3,0,0.,1.2,66.,1.2,0.,1.2,0.,1.2
1979-07-30 09:07:27.080 ,3,0,0.,1.2,78.,1.2,0.,1.2,0.,1.2
1979-07-30 09:07:28.280 ,3,0,0.,1.2,272.,1.2,0.,1.2,0.,1.2
1979-07-30 09:07:29.480 ,3,0,0.,1.2,41.,1.2,0.,1.2,0.,1.2
1979-07-30 09:07:30.680 ,3,0,0.,1.2,27.,1.2,0.,1.2,0.,1.2
1979-07-30 09:07:31.880 ,3,0,0.,1.2,46.,1.2,0.,1.2,0.,1.2
1979-07-30 09:07:33.080 ,3,0,0.,1.2,30.,1.2,0.,1.2,0.,1.2
1979-07-30 09:07:34.280 ,0,0,0.,1.2,252.,1.2,0.,1.2,0.,1.2
1979-07-30 09:07:35.480 ,0,0,0.,1.2,82.,1.2,0.,1.2,0.,1.2
1979-07-30 09:07:36.680 ,0,0,1.,1.2,64.,1.2,0.,1.2,0.,1.2
1979-07-30 09:07:37.880 ,0,0,1.,1.2,59.,1.2,0.,1.2,0.,1.2
1979-07-30 09:07:39.080 ,0,0,0.,1.2,63.,1.2,0.,1.2,0.,1.2
1979-07-30 09:07:40.280 ,0,0,0.,1.2,228.,1.2,0.,1.2,0.,1.2
1979-07-30 09:07:41.480 ,0,0,0.,1.2,72.,1.2,0.,1.2,0.,1.2
1979-07-30 09:07:42.680 ,0,0,0.,1.2,82.,1.2,0.,1.2,0.,1.2
1979-07-30 09:07:43.880 ,0,0,0.,1.2,74.,1.2,0.,1.2,0.,1.2
1979-07-30 09:07:45.080 ,0,0,0.,1.2,68.,1.2,0.,1.2,0.,1.2
1979-07-30 09:07:46.280 ,0,0,0.,1.2,280.,1.2,0.,1.2,0.,1.2
1979-07-30 09:07:47.480 ,0,0,0.,1.2,78.,1.2,0.,1.2,0.,1.2
1979-07-30 09:07:48.680 ,0,0,0.,1.2,74.,1.2,0.,1.2,0.,1.2
1979-07-30 09:07:49.880 ,0,0,0.,1.2,86.,1.2,0.,1.2,0.,1.2
1979-07-30 09:07:51.080 ,0,0,0.,1.2,68.,1.2,0.,1.2,0.,1.2
1979-07-30 09:07:52.280 ,0,0,0.,1.2,88.,1.2,0.,1.2,0.,1.2
1979-07-30 09:07:53.480 ,0,0,1.,1.2,82.,1.2,0.,1.2,0.,1.2
1979-07-30 09:07:54.680 ,0,0,0.,1.2,66.,1.2,0.,1.2,0.,1.2
1979-07-30 09:07:55.880 ,0,0,0.,1.2,90.,1.2,0.,1.2,0.,1.2
1979-07-30 09:07:57.080 ,0,0,0.,1.2,78.,1.2,0.,1.2,0.,1.2
1979-07-30 09:07:58.280 ,4,0,1.,1.2,212.,1.2,0.,1.2,0.,1.2
1979-07-30 09:07:59.480 ,4,0,0.,1.2,84.,1.2,0.,1.2,0.,1.2
1979-07-30 09:08:00.680 ,4,0,0.,1.2,94.,1.2,0.,1.2,0.,1.2
1979-07-30 09:08:01.880 ,4,0,0.,1.2,72.,1.2,0.,1.2,0.,1.2
1979-07-30 09:08:03.080 ,4,0,1.,1.2,74.,1.2,0.,1.2,0.,1.2
1979-07-30 09:08:04.280 ,4,0,0.,1.2,220.,1.2,0.,1.2,0.,1.2
1979-07-30 09:08:05.480 ,4,0,1.,1.2,72.,1.2,0.,1.2,0.,1.2
1979-07-30 09:08:06.680 ,4,0,1.,1.2,72.,1.2,0.,1.2,0.,1.2
1979-07-30 09:08:07.880 ,4,0,0.,1.2,72.,1.2,0.,1.2,0.,1.2
1979-07-30 09:08:09.080 ,4,0,0.,1.2,72.,1.2,0.,1.2,0.,1.2
1979-07-30 09:08:10.280 ,4,0,0.,1.2,196.,1.2,0.,1.2,0.,1.2
1979-07-30 09:08:11.480 ,4,0,0.,1.2,25.,1.2,0.,1.2,0.,1.2
1979-07-30 09:08:12.680 ,4,0,1.,1.2,35.,1.2,0.,1.2,0.,1.2
1979-07-30 09:08:13.880 ,4,0,0.,1.2,30.,1.2,0.,1.2,0.,1.2
1979-07-30 09:08:15.080 ,4,0,0.,1.2,27.,1.2,0.,1.2,0.,1.2
1979-07-30 09:08:16.280 ,4,0,0.,1.2,192.,1.2,0.,1.2,0.,1.2
1979-07-30 09:08:17.480 ,4,0,0.,1.2,76.,1.2,0.,1.2,0.,1.2
1979-07-30 09:08:18.680 ,4,0,0.,1.2,63.,1.2,0.,1.2,0.,1.2
1979-07-30 09:08:19.880 ,4,0,0.,1.2,84.,1.2,0.,1.2,0.,1.2
1979-07-30 09:08:21.080 ,4,0,0.,1.2,76.,1.2,0.,1.2,0.,1.2
1979-07-30 09:08:22.280 ,7,0,1.,1.2,220.,1.2,0.,1.2,0.,1.2
1979-07-30 09:08:23.480 ,7,0,0.,1.2,76.,1.2,0.,1.2,0.,1.2
1979-07-30 09:08:24.680 ,7,0,0.,1.2,74.,1.2,0.,1.2,0.,1.2
1979-07-30 09:08:25.880 ,7,0,1.,1.2,80.,1.2,0.,1.2,0.,1.2